Location: Chiroubles
(46.1812°N, 4.6660°E)
Time: 18:02:22
(UTC+00:00)

Cosmos 1833 - Pass Details

Date: 15 August 2020
Orbit: 836 x 863 km, 70.9° (Epoch: 23 September)

Event Time Altitude Azimuth Distance (km) Brightness Sun altitude
Exits shadow 21:58:00 44° 219° (SW) 1,152 4.7 -25.4°
Maximum altitude 21:59:52 78° 297° (WNW) 863 4.2 -25.6°
Drops below altitude 10° 22:05:33 10° 24° (NNE) 2,474 7.1 -26.0°
Sets 22:08:01 0° 26° (NNE) 3,416 7.9 -26.2°
